CZ-4C DEB, 43409

Orbit data source: Space-Track

CZ-4C DEB, 43409 is space debris in SSO originally from a launch on Mon, 23 Sep 2013 UTC launched from the Taiyaun Space Center, China (TSC). Debris objects in space refer to the collection of defunct objects orbiting the Earth. Examples of debris include non-operational satellites, rocket bodies, and fragments generated from explosions, collisions, or faulty payload assembly.

Loading next visibility...
Identifier
43409, 2013-052D
Orbit
SSO
Country
Flag of CNCN / PRC
Related business
Manufacturer
SAST
Mission
Spacecraft
Bus & Motor
Unknown
Mass
Unknown
Launch date (UTC)
2013-09-23 (13 years ago)
Launch vehicle
Unknown
Launch site
Taiyaun Space Center, China (TSC)
Object type
Payload
Rocket body
Debris
Shape & HBR
Unknown shape, 0.1 m
Radar Cross Section
Small (<0.1 m²)

Expand to show TLE details & history
Last TLE update: 2 days ago

TLE from 2 days ago
0 CZ-4C DEB
1 43409U 13052D   26171.12025445  .00000176  00000-0  17608-3 0  9990
2 43409  98.7775 279.2060 0234058 327.8387  30.8668 13.78074613631664
Epoch: 2026-06-20T02:53Z
TLE epoch observation values (Epoch: 2026-06-20T02:53:09.984Z)
Latitude
0.00005°
Longitude
-32.42505°
Altitude
827.002 km
Speed
7.513 km/s
True Right ascension
18h 36m 49s
True Declination
0° 00' 00"
Sunlit
Object was in full shadow at epoch
Visualization orbit readout
Latitude
Unknown
Longitude
Unknown
Altitude
Unknown
Speed
Unknown
Apparent Right ascension
Unknown
Apparent Declination
Unknown
Sunlit
N/A
Visualization observer readout
Local Sidereal Time
21:25:09
Azimuth
Unknown
Elevation
Unknown
Doppler factor
Unknown
Orbital elements
Apogee altitude
1,139.88 km
Perigee altitude
795.999 km
Semi-major axis
7,346.077 km
Eccentricity
0.02341
Inclination
98.7775°
RAAN
279.206°
Arg. of periapsis
327.8387°
True anomaly
32.2781°
Mean anomaly
30.8668°
Eccentric anomaly
31.56887°
Mean motion
3.44715 °/min
Orbital period
104.43 mins
BSTAR
0.00017608
Loading maneuver chart data...
Computing Atmospheric mass density...
Loading historical data...
Loading historical data...
Loading historical data...
Loading historical data...
Loading historical data...
Loading historical data...
Loading historical data...
Other satellites on launch #52 in the year 2013 (2013-09-23 UTC)

Documentation

Showing up to 5 results
|